TimeEST,TemperatureF,Dew PointF,Humidity,Sea Level PressureIn,VisibilityMPH,Wind Direction,Wind SpeedMPH,Gust SpeedMPH,PrecipitationIn,Events,Conditions,WindDirDegrees,DateUTC
12:15 AM,39.2,37.4,93,29.81,7.0,ENE,21.9,34.5,0.08,,Overcast,70,2013-02-27 05:15:00
12:35 AM,39.2,39.2,100,29.82,5.0,East,24.2,31.1,0.14,,Overcast,80,2013-02-27 05:35:00
12:55 AM,41.0,39.2,93,29.80,4.0,East,17.3,31.1,0.17,,Overcast,80,2013-02-27 05:55:00
1:15 AM,41.0,39.2,93,29.78,4.0,ENE,21.9,28.8,0.04,,Overcast,70,2013-02-27 06:15:00
1:35 AM,41.0,39.2,93,29.78,4.0,ENE,20.7,31.1,0.08,,Overcast,70,2013-02-27 06:35:00
1:55 AM,41.0,39.2,93,29.75,4.0,ENE,25.3,33.4,0.14,,Overcast,70,2013-02-27 06:55:00
2:15 AM,41.0,39.2,93,29.72,3.0,ENE,23.0,33.4,0.05,,Overcast,60,2013-02-27 07:15:00
2:35 AM,41.0,39.2,93,29.71,6.0,ENE,21.9,31.1,0.12,,Overcast,70,2013-02-27 07:35:00
2:55 AM,41.0,39.2,93,29.69,3.0,ENE,19.6,26.5,0.12,,Overcast,60,2013-02-27 07:55:00
3:15 AM,42.8,42.8,100,29.67,5.0,ENE,18.4,29.9,0.01,,Overcast,70,2013-02-27 08:15:00
3:35 AM,42.8,42.8,100,29.64,3.0,ENE,21.9,31.1,0.02,,Overcast,70,2013-02-27 08:35:00
3:55 AM,42.8,42.8,100,29.63,4.0,ENE,23.0,33.4,0.06,,Overcast,70,2013-02-27 08:55:00
4:15 AM,44.6,42.8,93,29.62,3.0,ENE,20.7,27.6,0.01,,Overcast,70,2013-02-27 09:15:00
4:35 AM,44.6,42.8,93,29.61,4.0,ENE,24.2,33.4,0.03,,Overcast,70,2013-02-27 09:35:00
4:55 AM,44.6,42.8,93,29.60,3.0,ENE,19.6,33.4,0.03,,Overcast,70,2013-02-27 09:55:00
5:15 AM,44.6,42.8,93,29.59,4.0,ENE,17.3,24.2,0.01,,Overcast,70,2013-02-27 10:15:00
5:35 AM,44.6,42.8,93,29.58,3.0,ENE,13.8,23.0,0.02,,Overcast,70,2013-02-27 10:35:00
6:15 AM,44.6,44.6,100,29.57,3.0,ENE,15.0,23.0,0.04,,Overcast,70,2013-02-27 11:15:00
6:35 AM,44.6,44.6,100,29.56,3.0,East,12.7,19.6,0.05,,Overcast,80,2013-02-27 11:35:00
7:15 AM,46.4,44.6,93,29.54,3.0,ENE,17.3,24.2,N/A,,Overcast,70,2013-02-27 12:15:00
7:35 AM,46.4,44.6,93,29.53,2.0,East,16.1,25.3,N/A,,Overcast,90,2013-02-27 12:35:00
7:55 AM,46.4,44.6,93,29.53,1.5,ENE,16.1,25.3,N/A,,Overcast,70,2013-02-27 12:55:00
8:15 AM,46.4,44.6,93,29.52,1.2,ENE,11.5,23.0,N/A,,Overcast,60,2013-02-27 13:15:00
8:35 AM,46.4,44.6,93,29.52,1.0,ENE,15.0,21.9,N/A,,Overcast,60,2013-02-27 13:35:00
8:55 AM,46.4,44.6,93,29.51,0.8,ENE,13.8,-,N/A,,Overcast,60,2013-02-27 13:55:00
9:15 AM,46.4,46.4,100,29.51,0.5,East,9.2,19.6,N/A,,Overcast,80,2013-02-27 14:15:00
9:35 AM,46.4,46.4,100,29.52,0.2,East,8.1,-,N/A,,Overcast,80,2013-02-27 14:35:00
9:55 AM,46.4,46.4,100,29.52,0.2,NE,4.6,-,N/A,,Overcast,50,2013-02-27 14:55:00
10:15 AM,46.4,46.4,100,29.51,0.2,Calm,Calm,-,N/A,,Overcast,0,2013-02-27 15:15:00
10:35 AM,48.2,46.4,93,29.51,0.5,Calm,Calm,-,N/A,,Overcast,0,2013-02-27 15:35:00
10:55 AM,48.2,46.4,93,29.51,1.2,Calm,Calm,-,N/A,,Overcast,0,2013-02-27 15:55:00
11:15 AM,50.0,50.0,100,29.51,7.0,SW,6.9,-,N/A,,Overcast,230,2013-02-27 16:15:00
11:35 AM,51.8,51.8,100,29.51,10.0,WSW,5.8,-,N/A,,Overcast,240,2013-02-27 16:35:00
11:55 AM,53.6,50.0,88,29.50,10.0,WSW,11.5,18.4,N/A,,Overcast,240,2013-02-27 16:55:00
12:15 PM,55.4,51.8,88,29.50,10.0,WSW,6.9,-,N/A,,Overcast,250,2013-02-27 17:15:00
12:35 PM,53.6,48.2,82,29.50,10.0,West,12.7,19.6,N/A,,Overcast,260,2013-02-27 17:35:00
12:55 PM,51.8,48.2,88,29.51,10.0,WSW,11.5,-,N/A,,Overcast,250,2013-02-27 17:55:00
1:15 PM,51.8,46.4,82,29.51,10.0,West,13.8,-,N/A,,Overcast,260,2013-02-27 18:15:00
1:35 PM,51.8,46.4,82,29.52,10.0,West,12.7,-,N/A,,Overcast,260,2013-02-27 18:35:00
1:55 PM,50.0,46.4,87,29.52,10.0,West,13.8,21.9,N/A,,Overcast,270,2013-02-27 18:55:00
2:15 PM,51.8,44.6,76,29.53,10.0,West,17.3,-,N/A,,Overcast,260,2013-02-27 19:15:00
2:35 PM,51.8,44.6,76,29.54,10.0,WSW,13.8,20.7,N/A,,Overcast,250,2013-02-27 19:35:00
2:55 PM,53.6,44.6,72,29.54,10.0,West,15.0,18.4,N/A,,Overcast,270,2013-02-27 19:55:00
3:15 PM,51.8,42.8,71,29.55,10.0,West,16.1,24.2,N/A,,Mostly Cloudy,270,2013-02-27 20:15:00
3:35 PM,53.6,39.2,58,29.56,10.0,West,19.6,29.9,N/A,,Mostly Cloudy,270,2013-02-27 20:35:00
3:55 PM,53.6,39.2,58,29.57,10.0,West,12.7,24.2,N/A,,Mostly Cloudy,260,2013-02-27 20:55:00
4:15 PM,51.8,39.2,62,29.58,10.0,West,17.3,23.0,N/A,,Overcast,260,2013-02-27 21:15:00
4:35 PM,50.0,39.2,66,29.59,10.0,West,12.7,24.2,N/A,,Overcast,280,2013-02-27 21:35:00
4:55 PM,48.2,37.4,66,29.60,10.0,WNW,16.1,26.5,N/A,,Overcast,290,2013-02-27 21:55:00
5:15 PM,48.2,35.6,62,29.61,10.0,West,11.5,19.6,N/A,,Scattered Clouds,280,2013-02-27 22:15:00
5:35 PM,46.4,37.4,71,29.62,10.0,West,10.4,-,N/A,,Scattered Clouds,280,2013-02-27 22:35:00
5:55 PM,48.2,37.4,66,29.63,10.0,West,10.4,-,N/A,,Mostly Cloudy,270,2013-02-27 22:55:00
6:15 PM,46.4,37.4,71,29.63,10.0,West,5.8,-,N/A,,Scattered Clouds,270,2013-02-27 23:15:00
6:35 PM,46.4,37.4,71,29.64,10.0,West,5.8,-,N/A,,Scattered Clouds,280,2013-02-27 23:35:00
6:55 PM,46.4,37.4,71,29.65,10.0,West,4.6,-,N/A,,Overcast,270,2013-02-27 23:55:00
7:15 PM,46.4,37.4,71,29.65,10.0,West,4.6,-,N/A,,Overcast,260,2013-02-28 00:15:00
7:35 PM,46.4,37.4,71,29.66,10.0,WSW,4.6,-,N/A,,Overcast,250,2013-02-28 00:35:00
7:55 PM,44.6,37.4,76,29.65,10.0,Calm,Calm,-,N/A,,Scattered Clouds,0,2013-02-28 00:55:00
8:15 PM,44.6,37.4,76,29.66,10.0,WSW,3.5,-,N/A,,Partly Cloudy,250,2013-02-28 01:15:00
8:35 PM,44.6,37.4,76,29.66,10.0,WSW,3.5,-,N/A,,Mostly Cloudy,240,2013-02-28 01:35:00
9:15 PM,44.6,37.4,76,29.67,10.0,WSW,3.5,-,N/A,,Overcast,250,2013-02-28 02:15:00
9:35 PM,44.6,37.4,76,29.67,10.0,North,-9999.0,-,N/A,,Overcast,0,2013-02-28 02:35:00
9:55 PM,44.6,37.4,76,29.67,10.0,WSW,3.5,-,N/A,,Overcast,250,2013-02-28 02:55:00
10:15 PM,44.6,37.4,76,29.66,10.0,SW,3.5,-,N/A,,Overcast,230,2013-02-28 03:15:00
10:35 PM,44.6,37.4,76,29.66,10.0,Calm,Calm,-,N/A,,Overcast,0,2013-02-28 03:35:00
10:55 PM,44.6,37.4,76,29.66,10.0,Calm,Calm,-,N/A,,Overcast,0,2013-02-28 03:55:00
11:35 PM,42.8,37.4,81,29.64,10.0,Calm,Calm,-,N/A,,Overcast,0,2013-02-28 04:35:00
11:55 PM,42.8,37.4,81,29.64,10.0,Calm,Calm,-,N/A,,Overcast,0,2013-02-28 04:55:00